Santa Rosa, CA

5:14 PM PDT on October 15, 2019 (GMT -0700)
Sonoma County

Weather History for KSTS - September, 2019

Change the Weather History Date:

Thursday, September 19, 2019

  Actual Average Record
Temperature  
Mean Temperature 64 °F 66 °F  
Max Temperature 81 °F 83 °F 104 °F (2000)
Min Temperature 46 °F 49 °F 41 °F (2008)
Degree Days  
Heating Degree Days 1    
Month to date heating degree days 3  
Since 1 July heating degree days 5  
Cooling Degree Days 0    
Month to date cooling degree days 78  
Year to date cooling degree days 491  
Growing Degree Days 12 (Base 50)    
Moisture  
Dew Point 49 °F    
Average Humidity 65    
Maximum Humidity 100    
Minimum Humidity 30    
Precipitation  
Precipitation 0.00 in 0.01 in 0.12 in (2010)
Month to date precipitation 0.13 0.13  
Year to date precipitation 38.52 22.31  
Sea Level Pressure  
Sea Level Pressure 29.92 in    
Wind  
Wind Speed 3 mph (West)    
Max Wind Speed 15 mph    
Max Gust Speed 19 mph    
Visibility 10 miles    
Events      
T = Trace of Precipitation, MM = Missing Value Source: NWS Daily Summary

Daily Weather History Graph

Daily Weather History Graph

Search for Another Location

Airport or City:

Astronomy

Sep. 19, 2019 Rise Set
Actual Time 6:56 AM PDT 7:13 PM PDT
Civil Twilight 6:29 AM PDT 7:39 PM PDT
Nautical Twilight 5:58 AM PDT 8:10 PM PDT
Astronomical Twilight 5:26 AM PDT 8:42 PM PDT
Moon 10:29 PM PDT (9/19) 12:01 PM PDT (9/19)
Length of Visible Light 13h 09m
Length of Day
12h 16m
Waning Gibbous, 73% of the Moon is Illuminated
Sep 19
Waning Gibbous
Sep 21
Last Quarter
Sep 28
New
Oct 5
First Quarter
Oct 13
Full

Hourly Weather History & Observations

Time (PDT) Temp. Dew Point Humidity Pressure Visibility Wind Dir Wind Speed Gust Speed Precip Events Conditions
12:53 AM 57.9 °F 52.0 °F 81% 29.93 in 10.0 mi NW 9.2 mph - N/A   Clear
1:53 AM 55.9 °F 51.1 °F 84% 29.93 in 10.0 mi Calm Calm - N/A   Clear
2:53 AM 54.0 °F 51.1 °F 90% 29.93 in 10.0 mi Calm Calm - N/A   Clear
3:53 AM 52.0 °F 50.0 °F 93% 29.92 in 10.0 mi Calm Calm - N/A   Clear
4:53 AM 51.1 °F 48.9 °F 92% 29.92 in 10.0 mi Calm Calm - N/A   Clear
5:53 AM 48.0 °F 46.9 °F 96% 29.92 in 10.0 mi Calm Calm - N/A   Clear
6:53 AM 46.9 °F 46.0 °F 97% 29.94 in 10.0 mi Calm Calm - N/A   Clear
7:53 AM 51.1 °F 50.0 °F 96% 29.95 in 10.0 mi Calm Calm - N/A   Clear
8:53 AM 57.9 °F 53.1 °F 84% 29.95 in 10.0 mi Calm Calm - N/A   Clear
9:53 AM 66.0 °F 52.0 °F 60% 29.96 in 10.0 mi North 10.4 mph - N/A   Clear
10:53 AM 71.1 °F 50.0 °F 47% 29.95 in 10.0 mi North 6.9 mph - N/A   Clear
11:53 AM 71.1 °F 48.9 °F 45% 29.95 in 10.0 mi SW 3.5 mph - N/A   Partly Cloudy
12:53 PM 75.0 °F 48.0 °F 38% 29.93 in 10.0 mi Calm Calm - N/A   Scattered Clouds
1:53 PM 77.0 °F 48.0 °F 36% 29.91 in 10.0 mi Variable 4.6 mph - N/A   Scattered Clouds
3:53 PM 79.0 °F 45.0 °F 30% 29.89 in 10.0 mi WSW 3.5 mph - N/A   Scattered Clouds
4:53 PM 77.0 °F 48.9 °F 37% 29.88 in 10.0 mi WSW 10.4 mph - N/A   Scattered Clouds
5:53 PM 75.9 °F 50.0 °F 40% 29.88 in 10.0 mi West 9.2 mph - N/A   Partly Cloudy
6:53 PM 72.0 °F 50.0 °F 46% 29.88 in 10.0 mi West 4.6 mph - N/A   Clear
7:53 PM 66.9 °F 50.0 °F 54% 29.89 in 10.0 mi South 4.6 mph - N/A   Clear
8:53 PM 64.0 °F 50.0 °F 60% 29.90 in 10.0 mi Calm Calm - N/A   Clear
9:53 PM 63.0 °F 48.9 °F 60% 29.91 in 10.0 mi Calm Calm - N/A   Clear
10:53 PM 57.0 °F 48.0 °F 72% 29.91 in 10.0 mi Calm Calm - N/A   Clear
11:53 PM 55.9 °F 48.9 °F 77% 29.92 in 10.0 mi Calm Calm - N/A   Clear